EW4858 Weather Reports


time (UTC)temp
C
wind
direction
speed
KPH
gust
KPH
rain 1hr
cm
rain 24hr
cm
rain mn
cm
humidity
%
barometer
mb
20260507104545 12 177 0.0 0.0 0.00 0.00 0.00 88 1012.2
20260507103044 12 177 0.0 0.0 0.00 0.00 0.00 88 1012.3
20260507101544 12 177 0.0 0.0 0.00 0.00 0.00 88 1012.4
20260507100045 12 177 0.0 0.0 0.00 0.00 0.00 88 1012.4
20260507094538 12 168 0.0 0.0 0.00 0.00 0.00 87 1012.5
20260507093043 12 166 0.0 0.0 0.00 0.00 0.00 87 1012.6
20260507091535 12 166 0.0 0.0 0.00 0.00 0.00 87 1012.7
20260507090033 12 166 0.0 0.0 0.00 0.00 0.00 87 1012.8
20260507084530 13 166 0.0 0.0 0.00 0.00 0.00 86 1013.1
20260507083029 13 166 0.0 0.0 0.00 0.00 0.00 86 1013.3
20260507081527 13 166 0.0 0.0 0.00 0.00 0.00 86 1013.3
20260507080034 13 166 0.0 0.0 0.00 0.00 0.00 85 1013.4
20260507074525 13 165 0.0 0.0 0.00 0.00 0.00 85 1013.3
20260507073021 14 163 0.0 0.0 0.00 0.00 0.00 85 1013.4
20260507071548 15 163 1.6 6.4 0.00 0.00 0.00 84 1013.5
20260507070015 15 113 0.0 0.0 0.00 0.00 0.00 84 1013.5
20260507064516 15 113 0.0 4.8 0.00 0.00 0.00 83 1013.7
20260507063015 15 120 0.0 6.4 0.00 0.00 0.00 83 1013.8
20260507061517 15 96 0.0 0.0 0.00 0.00 0.00 82 1013.6
20260507060014 15 97 0.0 0.0 0.00 0.00 0.00 81 1013.7
20260507054514 16 97 0.0 0.0 0.00 0.00 0.00 80 1013.6
20260507053014 16 96 0.0 0.0 0.00 0.00 0.00 80 1013.6
20260507051526 16 97 0.0 0.0 0.00 0.00 0.00 80 1013.6
20260507050013 16 96 0.0 0.0 0.00 0.00 0.00 79 1013.6
20260507044512 16 98 0.0 4.8 0.00 0.00 0.00 78 1013.6
20260507043012 16 78 1.6 8.0 0.00 0.00 0.00 77 1013.4
20260507041511 16 78 3.2 8.0 0.00 0.00 0.00 76 1013.3
20260507040009 17 78 0.0 6.4 0.00 0.00 0.00 74 1013.3
20260507034521 17 94 1.6 8.0 0.00 0.00 0.00 73 1013.1
20260507033015 17 107 4.8 11.3 0.00 0.00 0.00 70 1013.0
20260507031508 17 121 4.8 11.3 0.00 0.00 0.00 71 1012.8
20260507030008 17 87 3.2 9.7 0.00 0.00 0.00 71 1012.8
20260507024507 18 86 3.2 11.3 0.00 0.00 0.00 70 1012.5
20260507023016 18 85 6.4 14.5 0.00 0.00 0.00 69 1012.5
20260507021507 18 59 4.8 14.5 0.00 0.00 0.00 67 1012.4
20260507020007 19 90 8.0 17.7 0.00 0.00 0.00 66 1012.3
20260507014511 20 52 8.0 16.1 0.00 0.00 0.00 64 1012.2
20260507013005 20 88 8.0 16.1 0.00 0.00 0.00 62 1012.2
20260507011506 20 85 8.0 17.7 0.00 0.00 0.00 62 1012.1
20260507010004 20 77 9.7 17.7 0.00 0.00 0.00 60 1012.1
20260507004504 21 116 8.0 19.3 0.00 0.00 0.00 60 1012.0
20260507003004 20 109 8.0 17.7 0.00 0.00 0.00 60 1012.0
20260507001502 21 102 12.9 20.9 0.00 0.00 0.00 60 1011.8
20260507000002 21 112 8.0 14.5 0.00 0.00 0.00 60 1011.7
20260506234501 21 121 9.7 20.9 0.00 0.00 0.00 60 1011.6
20260506233001 21 121 9.7 20.9 0.00 0.00 0.00 59 1011.6
20260506231603 21 101 9.7 20.9 0.00 0.00 0.00 58 1011.6
20260506231501 21 88 11.3 25.7 0.00 0.00 0.00 58 1011.6
20260506230104 22 108 9.7 19.3 0.00 0.00 0.00 57 1011.6
20260506224559 22 104 11.3 17.7 0.00 0.00 0.00 56 1011.7
20260506223110 22 121 9.7 16.1 0.00 0.00 0.00 56 1011.8
20260506221557 22 138 6.4 17.7 0.00 0.00 0.00 55 1011.9
20260506220056 22 78 9.7 20.9 0.00 0.00 0.00 56 1011.9
20260506214603 23 69 9.7 20.9 0.00 0.00 0.00 56 1012.1
20260506213054 23 66 11.3 17.7 0.00 0.00 0.00 54 1012.2
20260506211602 23 105 12.9 22.5 0.00 0.00 0.00 54 1012.1
20260506210056 23 101 12.9 27.4 0.00 0.00 0.00 55 1012.1
20260506204553 23 57 16.1 25.7 0.00 0.00 0.00 55 1012.3
20260506203052 23 46 9.7 17.7 0.00 0.00 0.00 54 1012.3
20260506201548 23 92 9.7 20.9 0.00 0.00 0.00 52 1012.4
20260506200050 23 51 8.0 17.7 0.00 0.00 0.00 50 1012.6
20260506194543 22 35 8.0 16.1 0.00 0.00 0.00 52 1012.8
20260506193141 22 51 8.0 16.1 0.00 0.00 0.00 52 1012.9
20260506191538 21 55 6.4 16.1 0.00 0.00 0.00 53 1013.1
20260506190035 21 88 6.4 16.1 0.00 0.00 0.00 55 1013.3
20260506184533 21 117 6.4 17.7 0.00 0.03 0.00 55 1013.4
20260506183031 20 82 6.4 12.9 0.00 0.03 0.00 56 1013.7
20260506181529 20 96 9.7 17.7 0.00 0.03 0.00 56 1013.8
20260506180025 19 96 8.0 14.5 0.00 0.05 0.00 59 1014.0
20260506174523 18 88 4.8 12.9 0.00 0.05 0.00 62 1014.2
20260506173020 18 87 1.6 16.1 0.00 0.05 0.00 62 1014.4
20260506171521 17 98 4.8 17.7 0.00 0.05 0.00 66 1014.5
20260506170014 17 311 0.0 9.7 0.00 0.15 0.00 67 1014.5
20260506164514 17 22 6.4 14.5 0.00 0.15 0.00 67 1014.4
20260506163011 16 35 3.2 11.3 0.00 0.15 0.00 70 1014.5
20260506161509 16 82 0.0 8.0 0.00 0.15 0.00 70 1014.6
20260506160007 15 113 4.8 9.7 0.00 0.15 0.00 71 1014.5
20260506154506 16 242 0.0 0.0 0.00 0.15 0.00 71 1014.6
20260506153008 15 238 0.0 0.0 0.00 0.15 0.00 73 1014.6
20260506151600 14 238 0.0 0.0 0.00 0.15 0.00 78 1014.7
20260506150059 13 238 0.0 0.0 0.00 0.15 0.00 79 1014.9
20260506144604 12 238 0.0 0.0 0.00 0.30 0.00 81 1014.8
20260506143050 12 235 0.0 0.0 0.00 0.30 0.00 82 1014.8
20260506141546 11 234 0.0 0.0 0.00 0.30 0.00 85 1014.7
20260506140044 11 234 0.0 0.0 0.00 0.30 0.00 86 1014.7
20260506134542 10 234 4.8 8.0 0.00 0.33 0.00 87 1014.6
20260506133044 10 213 0.0 4.8 0.00 0.33 0.00 89 1014.4
20260506131540 10 213 0.0 0.0 0.00 0.33 0.00 89 1014.3
20260506130039 9 213 0.0 0.0 0.00 0.33 0.00 89 1014.1
20260506124539 9 213 0.0 0.0 0.00 0.36 0.00 88 1014.0
20260506123036 10 213 0.0 6.4 0.00 0.36 0.00 89 1013.9
20260506121535 10 213 1.6 6.4 0.00 0.36 0.00 89 1013.8
20260506120035 9 210 0.0 0.0 0.00 0.36 0.00 89 1013.9
20260506114533 10 210 0.0 4.8 0.00 0.36 0.00 89 1013.8
20260506113034 10 209 0.0 8.0 0.00 0.36 0.00 89 1013.8
20260506111533 10 208 3.2 6.4 0.00 0.36 0.00 89 1013.7
20260506110034 10 207 1.6 4.8 0.00 0.36 0.00 89 1013.6